Voltar ao catálogo

OPS 4682 DEB

AtivoPO
NORAD 13131·DEBRIS·🇺🇸 United States

Lançado Apr 3, 1965 de Vandenberg Space Force Base

Loading…

Próximas Passagens (próximas 24 horas)

TLE

AtualizadoSource: Space-Track

Época: Sep 12, 2026, 01:18 UTC

1 13131U 65027H   26255.05466644  .00000596  00000-0  20059-2 0  9992
2 13131  90.2380 355.2665 0030361 194.7183 290.2118 12.98085293641978

Acompanhe OPS 4682 DEB em tempo real com AllMySat

Download on the App Store